DW6218 Weather Reports


Display with metric or nautical units.
time (UTC)temp
F
wind
direction
speed
MPH
gust
MPH
rain 1hr
in
rain 24hr
in
rain mn
in
humidity
%
barometer
mb
20260906211534 97 76 0.0 0.0 0.00 0.00 0.00 29 1001.7
20260906210017 96 74 0.0 1.0 0.00 0.00 0.00 32 1001.8
20260906204526 95 74 0.0 2.0 0.00 0.00 0.00 31 1002.0
20260906203010 94 71 0.0 0.0 0.00 0.00 0.00 33 1002.2
20260906201510 95 72 0.0 1.0 0.00 0.00 0.00 32 1002.4
20260906200007 94 67 0.0 4.0 0.00 0.00 0.00 35 1002.6
20260906194503 93 61 0.0 4.0 0.00 0.00 0.00 34 1002.6
20260906193114 93 58 0.0 3.0 0.00 0.00 0.00 35 1002.7
20260906191604 92 57 0.0 6.0 0.00 0.00 0.00 36 1002.9
20260906190054 92 51 0.0 0.0 0.00 0.00 0.00 36 1003.4
20260906184550 90 45 0.0 0.0 0.00 0.00 0.00 38 1003.6
20260906183046 90 43 0.0 0.0 0.00 0.00 0.00 39 1004.0
20260906181603 88 36 0.0 0.0 0.00 0.00 0.00 42 1004.1
20260906180037 86 36 0.0 0.0 0.00 0.00 0.00 45 1004.4
20260906174536 85 32 0.0 2.0 0.00 0.00 0.00 46 1004.6
20260906173029 83 32 0.0 0.0 0.00 0.00 0.00 48 1004.8
20260906171527 82 34 0.0 0.0 0.00 0.00 0.00 50 1005.4
20260906170022 81 34 0.0 0.0 0.00 0.00 0.00 52 1005.4
20260906164518 79 33 0.0 0.0 0.00 0.00 0.00 55 1005.4
20260906163014 77 33 0.0 2.0 0.00 0.00 0.00 57 1005.5
20260906161510 75 32 0.0 1.0 0.00 0.00 0.00 60 1005.7
20260906160005 73 19 0.0 0.0 0.00 0.00 0.00 63 1005.8
20260906154505 71 22 0.0 2.0 0.00 0.00 0.00 67 1005.8
20260906153101 69 23 0.0 0.0 0.00 0.00 0.00 70 1005.9
20260906151604 68 24 0.0 0.0 0.00 0.00 0.00 72 1006.1
20260906150057 67 24 0.0 0.0 0.00 0.00 0.00 75 1006.0
20260906144608 66 24 0.0 0.0 0.00 0.00 0.00 76 1006.1
20260906143101 65 24 0.0 3.0 0.00 0.00 0.00 77 1006.2
20260906141551 64 21 0.0 3.0 0.00 0.00 0.00 79 1006.1
20260906140049 64 21 0.0 2.0 0.00 0.00 0.00 80 1006.1
20260906134551 63 22 0.0 1.0 0.00 0.00 0.00 81 1006.0
20260906133103 63 44 0.0 0.0 0.00 0.00 0.00 82 1005.8
20260906131547 63 51 0.0 0.0 0.00 0.00 0.00 83 1005.8
20260906130058 63 58 0.0 0.0 0.00 0.00 0.00 83 1005.7
20260906124546 63 67 0.0 0.0 0.00 0.00 0.00 83 1005.6
20260906123043 63 74 0.0 0.0 0.00 0.00 0.00 82 1005.7
20260906121541 64 74 0.0 0.0 0.00 0.00 0.00 82 1005.8
20260906120046 64 74 0.0 0.0 0.00 0.00 0.00 82 1005.6
20260906114548 64 74 0.0 0.0 0.00 0.00 0.00 82 1005.7
20260906113037 65 74 0.0 0.0 0.00 0.00 0.00 80 1005.6
20260906111539 65 74 0.0 0.0 0.00 0.00 0.00 80 1005.5
20260906110036 65 74 0.0 4.0 0.00 0.00 0.00 78 1005.4
20260906104535 66 74 0.0 3.0 0.00 0.00 0.00 78 1005.4
20260906103029 66 74 0.0 1.0 0.00 0.00 0.00 77 1005.5
20260906101528 67 73 0.0 1.0 0.00 0.00 0.00 76 1005.4
20260906100032 67 75 0.0 1.0 0.00 0.00 0.00 76 1005.4
20260906094550 68 13 0.0 0.0 0.00 0.00 0.00 76 1005.3
20260906093039 68 5 0.0 0.0 0.00 0.00 0.00 74 1005.1
20260906091520 68 5 0.0 0.0 0.00 0.00 0.00 73 1004.7
20260906090024 68 5 0.0 0.0 0.00 0.00 0.00 72 1004.7
20260906084520 68 5 0.0 0.0 0.00 0.00 0.00 71 1004.9
20260906083023 68 5 0.0 0.0 0.00 0.00 0.00 70 1004.7
20260906081516 68 5 0.0 0.0 0.00 0.00 0.00 70 1004.8
20260906080016 69 5 0.0 0.0 0.00 0.00 0.00 69 1004.8
20260906074517 69 5 0.0 2.0 0.00 0.00 0.00 68 1004.7
20260906073019 69 5 0.0 0.0 0.00 0.00 0.00 67 1004.8
20260906071511 69 5 0.0 4.0 0.00 0.00 0.00 68 1004.7
20260906070011 70 9 0.0 4.0 0.00 0.00 0.00 68 1004.6
20260906064508 70 5 0.0 5.0 0.00 0.00 0.00 65 1004.5
20260906063005 70 360 0.0 3.0 0.00 0.00 0.00 63 1004.9
20260906061503 71 5 0.0 1.0 0.00 0.00 0.00 62 1005.0
20260906054609 72 360 0.0 4.0 0.00 0.00 0.00 59 1004.6
20260906053100 73 355 0.0 4.0 0.00 0.00 0.00 55 1004.7
20260906051605 74 16 0.0 6.0 0.00 0.00 0.00 51 1004.3
20260906050105 75 5 0.0 6.0 0.00 0.00 0.00 46 1004.2
20260906044601 75 68 0.0 4.0 0.00 0.00 0.00 44 1004.3
20260906043055 75 14 0.0 2.0 0.00 0.00 0.00 43 1003.8
20260906041555 76 5 0.0 0.0 0.00 0.00 0.00 40 1003.7
20260906034554 77 5 0.0 0.0 0.00 0.00 0.00 37 1003.5
20260906033053 78 360 0.0 2.0 0.00 0.00 0.00 36 1003.4
20260906031552 78 350 0.0 1.0 0.00 0.00 0.00 34 1003.2
20260906030052 79 346 0.0 5.0 0.00 0.00 0.00 34 1002.9
20260906024557 80 342 0.0 3.0 0.00 0.00 0.00 33 1002.7
20260906023051 80 342 0.0 5.0 0.00 0.00 0.00 33 1002.7
20260906021551 81 341 0.0 1.0 0.00 0.00 0.00 32 1002.7
20260906020051 82 5 0.0 2.0 0.00 0.00 0.00 31 1002.3
20260906014625 83 11 0.0 9.0 0.00 0.00 0.00 30 1002.1
20260906013057 85 14 8.0 15.0 0.00 0.00 0.00 29 1002.2
20260906011548 86 345 6.0 13.0 0.00 0.00 0.00 26 1002.0
20260906010051 88 291 1.0 10.0 0.00 0.00 0.00 24 1001.9
20260906004549 90 339 2.0 11.0 0.00 0.00 0.00 22 1001.7
20260906003047 92 5 0.0 0.0 0.00 0.00 0.00 20 1001.5
20260906001545 94 5 0.0 0.0 0.00 0.00 0.00 19 1001.4
20260906000046 97 5 0.0 2.0 0.00 0.00 0.00 18 1001.4
20260905234544 99 5 0.0 4.0 0.00 0.00 0.00 16 1001.3
20260905233047 100 5 0.0 6.0 0.00 0.00 0.00 16 1001.2
20260905231544 100 21 0.0 0.0 0.00 0.00 0.00 16 1000.9
20260905230044 100 22 0.0 1.0 0.00 0.00 0.00 16 1000.8
20260905224543 102 5 0.0 0.0 0.00 0.00 0.00 14 1000.7
20260905223041 103 11 0.0 0.0 0.00 0.00 0.00 14 1000.7
20260905221558 102 5 0.0 4.0 0.00 0.00 0.00 14 1000.9
20260905220037 102 74 0.0 0.0 0.00 0.00 0.00 14 1001.1
20260905214533 101 96 0.0 4.0 0.00 0.00 0.00 15 1001.3
20260905213040 101 34 0.0 6.0 0.00 0.00 0.00 15 1001.5